Montreal Mirabel, Quebec

5:25 AM EDT on October 01, 2016 (GMT -0400)
Montreal International (Mirabel)

Weather History for CYMX - December, 2013

Change the Weather History Date:

Friday, December 20, 2013

  Actual Average Record
Temperature  
Mean Temperature 20 °F -  
Max Temperature 26 °F 24 °F 39 °F (2002)
Min Temperature 15 °F 11 °F -18 °F (2004)
Degree Days  
Heating Degree Days 44    
Moisture  
Dew Point 15 °F    
Average Humidity 84    
Maximum Humidity 86    
Minimum Humidity 74    
Precipitation  
Precipitation 0.00 in - - ()
Sea Level Pressure  
Sea Level Pressure 30.03 in    
Wind  
Wind Speed 6 mph ()    
Max Wind Speed 12 mph    
Max Gust Speed 21 mph    
Visibility 3.4 miles    
Events Snow    
Averages and records for this station are not official NWS values.
T = Trace of Precipitation, MM = Missing Value Source: Averaged Metar Reports

Daily Weather History Graph

Daily Weather History Graph

Search for Another Location

Airport or City:

Trip Planner

Search our weather history database for the weather conditions in past years. The results will help you decide how hot, cold, wet, or windy it might be!

Date:

Astronomy

Dec. 20, 2013 Rise Set
Actual Time 7:33 AM EST 4:14 PM EST
Civil Twilight 6:59 AM EST 4:48 PM EST
Nautical Twilight 6:21 AM EST 5:26 PM EST
Astronomical Twilight 5:45 AM EST 6:02 PM EST
Moon 7:41 PM EST (12/20) 9:17 AM EST (12/20)
Length of Visible Light 9h 49m
Length of Day
8h 40m
Waning Gibbous, 90% of the Moon is Illuminated
Dec 20
Waning Gibbous
Dec 25
Last Quarter
Jan 1
New
Jan 7
First Quarter
Jan 15
Full

Hourly Weather History & Observations

Time (EST) Temp. Windchill Dew Point Humidity Pressure Visibility Wind Dir Wind Speed Gust Speed Precip Events Conditions
12:00 AM 26.6 °F - 23.0 °F 86% 30.10 in 10.0 mi Calm Calm - N/A   Overcast
1:00 AM 24.8 °F - 21.2 °F 86% 30.09 in 10.0 mi Variable 2.3 mph - N/A   Overcast
2:00 AM 26.6 °F - 23.0 °F 86% 30.09 in 10.0 mi East 2.3 mph - N/A   Overcast
3:00 AM 24.8 °F 17.9 °F 21.2 °F 86% 30.11 in 10.0 mi ENE 5.8 mph - N/A   Overcast
4:00 AM 24.8 °F 19.1 °F 17.6 °F 74% 30.09 in 10.0 mi NE 4.6 mph - N/A   Overcast
5:00 AM 21.2 °F 13.6 °F 17.6 °F 86% 30.09 in 4.0 mi NE 5.8 mph - N/A Snow Light Snow
6:00 AM 19.4 °F 9.5 °F 15.8 °F 86% 30.07 in 4.0 mi ENE 8.1 mph - N/A Snow Light Snow Showers
6:50 AM 17.6 °F 5.7 °F 12.2 °F 79% 30.08 in 2.5 mi NE 10.4 mph 18.4 mph N/A Snow Light Snow
7:00 AM 15.8 °F 2.7 °F 12.2 °F 86% 30.08 in 2.0 mi ENE 11.5 mph 20.7 mph N/A Snow Light Snow
8:00 AM 15.8 °F 3.4 °F 10.4 °F 79% 30.06 in 2.5 mi NE 10.4 mph 19.6 mph N/A Snow Light Snow
8:32 AM 15.8 °F 5.1 °F 10.4 °F 79% 30.05 in 2.0 mi NE 8.1 mph - N/A Snow Light Snow
9:00 AM 15.8 °F 5.1 °F 10.4 °F 79% 30.04 in 2.0 mi NE 8.1 mph - N/A Snow Light Snow
9:46 AM 15.8 °F 6.1 °F 12.2 °F 86% 30.04 in 1.0 mi NNE 6.9 mph 18.4 mph N/A Snow Light Snow
10:00 AM 15.8 °F 6.1 °F 12.2 °F 86% 30.04 in 1.5 mi NNE 6.9 mph - N/A Snow Light Snow
11:00 AM 17.6 °F 8.2 °F 14.0 °F 86% 30.02 in 1.5 mi NNE 6.9 mph - N/A Snow Light Snow
12:00 PM 17.6 °F 9.3 °F 14.0 °F 86% 30.00 in 2.0 mi NNE 5.8 mph - N/A Snow Light Snow
1:00 PM 19.4 °F 9.5 °F 14.0 °F 80% 29.97 in 3.0 mi ENE 8.1 mph - N/A Snow Light Snow
2:00 PM 19.4 °F 7.9 °F 14.0 °F 80% 29.98 in 2.0 mi ENE 10.4 mph - N/A Snow Light Snow
3:00 PM 19.4 °F 7.9 °F 14.0 °F 80% 29.99 in 2.0 mi ENE 10.4 mph - N/A Snow Light Snow
3:20 PM 19.4 °F 8.6 °F 14.0 °F 80% 29.98 in 1.0 mi ENE 9.2 mph - N/A Snow Light Snow
4:00 PM 19.4 °F 11.5 °F 15.8 °F 86% 30.00 in 1.0 mi NE 5.8 mph - N/A Snow Light Snow
4:50 PM 19.4 °F 11.5 °F 15.8 °F 86% 30.00 in 2.0 mi NE 5.8 mph - N/A Snow Light Snow
5:00 PM 19.4 °F 10.4 °F 15.8 °F 86% 30.00 in 2.0 mi ENE 6.9 mph - N/A Snow Light Snow
6:00 PM 19.4 °F 9.5 °F 15.8 °F 86% 30.01 in 2.0 mi ENE 8.1 mph - N/A Snow Light Snow
7:00 PM 19.4 °F 9.5 °F 15.8 °F 86% 30.02 in 1.5 mi ENE 8.1 mph - N/A Snow Light Snow
7:41 PM 19.4 °F 9.5 °F 15.8 °F 86% 30.02 in 2.5 mi NE 8.1 mph - N/A Snow Light Snow
8:00 PM 19.4 °F 7.9 °F 15.8 °F 86% 30.00 in 2.5 mi ENE 10.4 mph - N/A Snow Light Snow
9:00 PM 19.4 °F 8.6 °F 14.0 °F 80% 30.00 in 2.5 mi NE 9.2 mph 18.4 mph N/A Snow Light Snow
10:00 PM 17.6 °F 7.3 °F 14.0 °F 86% 29.99 in 1.5 mi NE 8.1 mph 18.4 mph N/A Snow Light Snow
10:49 PM 17.6 °F 9.3 °F 14.0 °F 86% 29.99 in 1.0 mi NNE 5.8 mph - N/A Snow Light Snow
11:00 PM 17.6 °F 7.3 °F 14.0 °F 86% 29.98 in 0.8 mi NE 8.1 mph - N/A Snow Light Snow
11:45 PM 17.6 °F 8.2 °F 14.0 °F 86% 29.96 in 6.0 mi NE 6.9 mph - N/A Snow Light Snow